Tracking 19903 objects as of 17-Oct-2019
HD Live streaming from Space Station
objects crossing your sky now

IRIDIUM 33 DEB

Track IRIDIUM 33 DEB now!
10-day predictions


NORAD ID: 34696
Int'l Code: 1997-051KT
Perigee: 750.4 km
Apogee: 955.6 km
Inclination: 86.2 °
Period: 101.8 minutes
Semi major axis: 7224 km
RCS: 0.0073 m2 (small)
Launch date: September 14, 1997
Source: United States (US)
Launch site: TYURATAM MISSILE AND SPACE COMPLEX (TTMTR)

Note: This is SATELLITE DEBRIS
aabbcc
Your satellite tracking list
Your tracking list is empty




NASA's NSSDC Master Catalog

Two Line Element Set (TLE):
1 34696U 97051KT  19288.76981778  .00001093  00000-0  51447-3 0  9998
2 34696  86.2057 285.7282 0141967 197.2752 288.7412 14.13956549546557
Source of the keplerian elements: AFSPC